Marble, NC

3:52 PM EST on February 26, 2017 (GMT -0500)
Andrews

Weather History for KRHP - October, 2014

Change the Weather History Date:

Tuesday, October 7, 2014

  Actual Average (KMMI) Record (KMMI)
Temperature  
Mean Temperature 56 °F -  
Max Temperature 60 °F 74 °F 84 °F (2016)
Min Temperature 53 °F 46 °F 48 °F (2016)
Degree Days  
Heating Degree Days 8    
Growing Degree Days 6 (Base 50)    
Moisture  
Dew Point 55 °F    
Average Humidity 97    
Maximum Humidity 100    
Minimum Humidity 88    
Precipitation  
Precipitation 0.39 in - - ()
Sea Level Pressure  
Sea Level Pressure 30.08 in    
Wind  
Wind Speed 0 mph (NNE)    
Max Wind Speed 5 mph    
Max Gust Speed -    
Visibility 8 miles    
Events Rain    
Averages and records for this station are not official NWS values.
T = Trace of Precipitation, MM = Missing Value Source: NWS Daily Summary

Daily Weather History Graph

Daily Weather History Graph

Search for Another Location

Airport or City:

Trip Planner

Search our weather history database for the weather conditions in past years. The results will help you decide how hot, cold, wet, or windy it might be!

Date:

Astronomy

Oct. 07, 2014 Rise Set
Actual Time 7:34 AM EDT 7:10 PM EDT
Civil Twilight 7:09 AM EDT 7:36 PM EDT
Nautical Twilight 6:40 AM EDT 8:05 PM EDT
Astronomical Twilight 6:10 AM EDT 8:35 PM EDT
Moon 6:45 PM EDT (10/7) 6:32 AM EDT (10/7)
Length of Visible Light 12h 26m
Length of Day
11h 35m
Waxing Gibbous, 99% of the Moon is Illuminated
Oct 7
Waxing Gibbous
Oct 8
Full
Oct 15
Last Quarter
Oct 23
New
Oct 30
First Quarter

Hourly Weather History & Observations

Time (EDT) Temp. Dew Point Humidity Pressure Visibility Wind Dir Wind Speed Gust Speed Precip Events Conditions
12:15 AM 54.7 °F 54.5 °F 99% 30.08 in 10.0 mi Calm Calm - 0.01 in   Mostly Cloudy
12:35 AM 54.3 °F 54.3 °F 100% 30.07 in 10.0 mi Calm Calm - 0.01 in   Overcast
12:55 AM 54.3 °F 54.3 °F 100% 30.07 in 10.0 mi Calm Calm - 0.01 in   Overcast
1:15 AM 53.6 °F 53.6 °F 100% 30.07 in 7.0 mi Calm Calm - N/A   Mostly Cloudy
1:35 AM 53.2 °F 53.2 °F 100% 30.07 in 5.0 mi Calm Calm - N/A   Mostly Cloudy
1:55 AM 53.4 °F 53.4 °F 100% 30.07 in 4.0 mi Calm Calm - N/A   Mostly Cloudy
2:15 AM 53.8 °F 53.8 °F 100% 30.07 in 7.0 mi Calm Calm - N/A   Overcast
2:35 AM 54.0 °F 54.0 °F 100% 30.07 in 7.0 mi Calm Calm - N/A   Overcast
2:55 AM 54.0 °F 54.0 °F 100% 30.07 in 10.0 mi Calm Calm - N/A   Overcast
3:15 AM 54.0 °F 54.0 °F 100% 30.06 in 7.0 mi Calm Calm - N/A   Overcast
3:35 AM 54.3 °F 54.3 °F 100% 30.06 in 10.0 mi Calm Calm - N/A   Overcast
3:55 AM 54.3 °F 54.3 °F 100% 30.06 in 5.0 mi Calm Calm - N/A Rain Light Rain
4:15 AM 54.5 °F 54.5 °F 100% 30.04 in 4.0 mi ENE 4.6 mph - 0.02 in Rain Rain
4:35 AM 54.9 °F 54.7 °F 99% 30.06 in 10.0 mi NNW 3.5 mph - 0.03 in Rain Light Rain
4:55 AM 54.9 °F 54.7 °F 99% 30.05 in 4.0 mi Calm Calm - 0.11 in Rain Light Rain
5:15 AM 54.7 °F 54.5 °F 99% 30.05 in 7.0 mi Calm Calm - 0.03 in Rain Rain
5:35 AM 54.7 °F 54.7 °F 100% 30.06 in 7.0 mi Calm Calm - 0.04 in Rain Light Rain
5:55 AM 54.5 °F 54.5 °F 100% 30.06 in 7.0 mi Calm Calm - 0.04 in Rain Light Rain
6:15 AM 54.7 °F 54.7 °F 100% 30.09 in 3.0 mi Calm Calm - 0.04 in Rain Heavy Rain
6:35 AM 54.7 °F 54.7 °F 100% 30.10 in 2.5 mi Calm Calm - 0.14 in Rain Rain
6:55 AM 54.7 °F 54.7 °F 100% 30.11 in 5.0 mi Calm Calm - 0.17 in Rain Light Rain
7:15 AM 54.7 °F 54.7 °F 100% 30.11 in 7.0 mi Calm Calm - 0.01 in Rain Light Rain
7:35 AM 54.9 °F 54.9 °F 100% 30.11 in 7.0 mi Calm Calm - 0.03 in Rain Light Rain
7:55 AM 55.0 °F 55.0 °F 100% 30.12 in 10.0 mi Calm Calm - 0.04 in Rain Light Rain
8:15 AM 55.0 °F 55.0 °F 100% 30.13 in 7.0 mi Calm Calm - 0.01 in Rain Light Rain
8:35 AM 55.4 °F 55.4 °F 100% 30.12 in 7.0 mi Calm Calm - 0.02 in Rain Light Rain
8:55 AM 55.4 °F 55.4 °F 100% 30.11 in 10.0 mi Calm Calm - 0.02 in   Mostly Cloudy
9:15 AM 55.8 °F 55.8 °F 100% 30.11 in 10.0 mi Calm Calm - N/A   Overcast
9:35 AM 57.4 °F 56.5 °F 97% 30.11 in 10.0 mi Calm Calm - N/A   Mostly Cloudy
9:55 AM 58.8 °F 56.5 °F 92% 30.10 in 10.0 mi Calm Calm - N/A   Mostly Cloudy
10:15 AM 59.0 °F 56.1 °F 90% 30.09 in 10.0 mi Calm Calm - N/A   Overcast
10:35 AM 59.2 °F 56.1 °F 90% 30.10 in 10.0 mi Calm Calm - N/A   Overcast
10:55 AM 59.4 °F 56.1 °F 89% 30.11 in 10.0 mi Calm Calm - N/A   Overcast
11:15 AM 59.5 °F 56.7 °F 90% 30.11 in 10.0 mi Calm Calm - N/A   Overcast
11:35 AM 59.5 °F 56.3 °F 89% 30.10 in 10.0 mi Calm Calm - N/A   Overcast
11:55 AM 59.9 °F 56.3 °F 88% 30.10 in 10.0 mi Calm Calm - N/A   Overcast
12:15 PM 59.9 °F 56.7 °F 89% 30.08 in 10.0 mi Calm Calm - N/A   Overcast
12:35 PM 60.4 °F 57.6 °F 90% 30.08 in 10.0 mi Calm Calm - N/A   Overcast
12:55 PM 60.8 °F 57.2 °F 88% 30.08 in 10.0 mi Calm Calm - N/A   Overcast